Wind_Speed
2 5 4 1 1 1 2 3 5 2 1 4 2 5 10 11 10 10 9 8 6 4 3 2 3 4 6 8 10 12 13 15 15 16 17 18 17 16 16 15 16 16 15 14
4 4 2 5 4 4 3 5 6 1 0 4 4 10 10 13 12 11 10 9 7 5 3 2 1 2 4 5 7 10 12 13 13 13 15 16 18 18 18 16 17 17 17 16
4 4 5 4 5 5 4 7 4 3 1 2 7 9 12 14 11 11 10 8 6 6 5 4 5 5 5 6 7 8 10 13 14 13 15 17 19 19 19 18 20 18 19 18
1 2 6 5 5 4 6 2 1 3 4 5 2 5 8 13 15 14 14 11 9 7 7 7 9 10 11 9 8 8 10 14 15 16 19 22 23 23 22 23 22 22 21 20
4 3 5 6 1 2 3 1 3 4 6 6 6 5 4 9 14 16 15 12 9 8 5 6 8 10 11 9 9 10 13 18 20 22 24 24 24 26 27 26 26 25 24 23
2 1 1 2 2 1 3 3 1 1 3 5 5 4 4 6 8 13 15 12 10 8 6 6 6 6 7 7 9 12 18 22 25 26 26 26 28 29 29 29 30 30 29 26
3 3 2 2 4 4 4 5 3 4 4 3 5 5 9 3 6 10 16 13 11 7 4 3 5 7 8 10 13 18 23 27 27 28 28 28 29 30 30 30 30 31 31 29
5 5 2 3 2 2 0 3 4 5 4 4 3 6 0 1 4 9 12 10 7 6 4 4 6 8 10 13 18 23 25 28 28 28 29 29 29 29 30 30 30 31 30 30
3 3 2 4 2 3 4 4 3 3 1 4 3 5 7 4 9 11 13 11 8 4 4 6 9 10 13 17 22 24 27 29 28 29 30 31 31 30 31 32 32 32 33 33
2 3 1 3 1 4 4 4 3 3 4 5 4 6 8 9 13 13 15 14 10 4 5 7 10 13 17 21 24 25 28 29 30 30 31 31 32 32 32 33 33 32 31 33
0 2 4 2 6 4 3 3 2 3 4 4 7 4 3 1 5 12 14 14 12 8 7 7 11 16 20 23 25 27 28 29 31 31 31 32 33 33 33 34 34 32 34 36
2 2 4 1 3 2 3 3 5 4 4 3 4 9 3 2 3 5 9 11 12 9 8 10 14 18 21 24 26 28 29 29 29 31 33 33 34 35 35 35 35 35 36 34
2 2 3 4 3 2 6 5 5 2 1 10 8 7 4 3 2 3 7 10 11 10 11 11 16 18 22 25 27 28 27 29 30 31 32 33 33 34 35 36 35 35 35 35
1 3 6 7 3 1 4 7 10 10 5 10 14 22 18 9 7 9 9 10 10 12 10 12 14 19 24 25 27 27 27 28 29 30 31 32 33 34 35 35 36 36 35 35
2 5 4 10 9 8 11 14 11 17 21 11 22 19 20 17 18 16 8 6 7 10 11 13 14 20 24 25 26 26 27 28 29 31 32 34 35 35 36 36 36 35 35 34
2 2 2 5 1 4 11 17 18 22 23 23 26 26 21 10 3 5 4 7 10 11 12 14 17 22 24 25 27 27 27 29 30 32 34 36 36 36 33 35 35 34 34 34
3 2 2 5 2 7 11 18 15 11 13 12 14 11 5 6 8 10 9 9 10 11 13 16 17 21 23 26 27 27 29 32 34 33 35 34 36 36 37 35 35 35 34 34
3 3 2 5 8 7 4 6 6 10 13 12 17 17 14 12 9 10 9 9 9 11 15 15 19 21 23 25 26 27 31 34 31 34 35 35 37 38 38 35 35 32 32 32
2 4 3 4 4 15 13 4 0 2 8 9 14 14 11 7 6 12 4 3 8 12 16 19 20 22 24 25 26 28 30 31 31 33 36 36 36 40 35 36 37 30 24 28
3 3 4 2 4 5 5 4 3 2 9 4 5 9 11 3 11 10 2 7 12 16 17 20 21 22 23 25 28 29 28 30 33 32 37 37 40 35 38 37 28 25 27 25
4 5 9 9 6 9 9 4 3 4 9 4 5 10 6 8 8 9 8 10 13 15 18 19 19 21 22 27 28 27 29 29 34 37 38 38 40 36 35 32 26 24 24 20
7 6 5 4 6 9 9 9 5 10 4 6 7 8 9 10 9 9 9 10 13 15 17 17 19 20 25 26 26 27 29 34 35 37 37 39 38 37 33 29 26 25 23 21
6 8 3 10 6 4 11 13 11 6 12 13 10 11 9 9 8 7 9 10 12 15 16 18 19 23 24 25 26 29 33 35 37 37 36 38 38 35 31 28 25 22 22 19
6 5 5 6 8 15 17 14 16 15 16 16 13 11 8 9 6 8 8 9 11 14 16 19 20 21 24 27 28 29 34 33 36 35 37 36 35 34 32 28 24 20 19 18
4 4 11 21 17 18 17 12 13 15 11 11 11 9 9 7 6 6 7 8 11 14 16 19 20 22 25 27 28 31 34 31 35 35 36 35 32 32 30 28 24 22 21 20
10 15 11 16 19 19 22 20 19 16 13 12 10 8 7 7 5 6 7 8 11 14 18 19 21 23 24 26 29 31 32 32 34 33 33 33 32 31 29 26 24 20 22 24
Wind_Direction
52 232 233 203 171 150 188 231 259 251 21 288 242 201 189 185 195 191 188 180 174 158 132 120 64 42 33 29 23 20 13 8 4 1 358 352 347 341 338 333 332 329 321 320
208 246 116 125 152 174 213 255 257 182 138 281 263 258 203 193 201 198 192 196 190 190 195 192 306 323 345 352 3 360 358 352 347 342 338 333 328 326 324 322 323 324 320 312
269 88 143 182 176 216 229 263 259 303 249 240 293 255 200 206 204 202 212 212 213 228 250 264 274 289 296 306 325 332 334 337 331 321 318 316 314 308 310 312 312 313 313 309
283 101 198 203 225 248 267 150 171 276 291 289 308 305 193 195 209 210 209 209 217 227 245 269 293 288 277 286 296 304 320 327 328 324 316 310 304 300 299 300 300 298 297 298
104 170 176 215 301 223 33 6 301 278 262 294 181 241 123 187 216 213 211 211 221 227 240 280 287 289 288 275 289 302 312 318 319 315 312 306 299 296 294 291 293 294 292 287
95 45 333 27 98 53 123 216 209 187 212 238 139 233 207 187 232 205 202 201 200 200 236 267 286 307 313 295 298 308 314 313 313 309 307 301 301 298 291 288 288 290 287 285
163 162 104 341 220 185 236 256 239 212 210 355 150 221 278 227 222 203 185 188 185 193 229 285 322 332 323 316 314 312 312 310 311 307 304 301 298 295 292 289 286 287 283 280
226 191 197 11 344 356 69 291 304 290 288 345 158 236 117 359 187 178 176 179 186 208 231 295 316 316 313 314 313 312 311 309 308 306 304 301 298 294 290 288 287 286 286 283
222 164 130 43 3 311 129 227 18 283 220 261 217 241 195 176 169 177 187 192 196 218 263 288 289 299 307 308 310 309 309 307 306 306 304 302 298 294 291 289 288 286 282 281
118 226 163 113 230 71 280 106 227 192 271 267 213 274 270 193 199 201 208 213 209 232 294 286 284 296 305 307 308 308 309 307 307 306 304 302 300 296 292 289 287 282 282 282
231 287 114 205 203 193 158 206 210 297 267 287 298 280 47 336 217 217 224 227 227 241 299 298 299 307 310 307 310 311 311 309 308 308 305 302 299 296 293 291 288 282 285 283
38 305 245 256 111 344 291 263 237 252 195 244 299 273 109 261 278 264 247 240 230 247 297 296 309 310 309 310 310 311 311 310 308 307 304 302 300 298 295 292 289 288 287 282
160 197 268 185 180 181 233 206 237 196 269 237 270 272 150 141 208 238 257 266 233 257 295 307 311 310 309 313 312 312 311 310 310 309 307 305 304 303 299 295 292 289 286 282
253 267 263 275 353 31 222 212 212 219 240 270 235 278 287 261 284 292 281 267 256 289 298 303 303 310 314 312 311 312 312 312 312 310 309 305 304 304 302 299 295 292 287 283
258 259 253 271 274 257 264 260 226 225 239 252 270 282 285 302 313 309 311 285 273 283 299 308 311 314 314 313 314 314 313 312 312 309 307 305 304 304 302 299 295 293 288 285
190 266 294 283 212 255 269 269 250 245 256 263 266 278 287 296 329 313 293 288 290 297 311 315 316 317 315 315 314 314 311 310 311 309 309 310 306 303 302 296 295 295 291 289
218 243 288 277 317 291 267 254 248 232 235 250 255 286 349 291 308 298 304 292 294 306 314 317 317 314 313 313 313 311 311 312 309 306 303 307 305 303 299 293 289 287 287 284
192 206 243 285 305 263 17 263 262 267 265 248 261 278 292 299 301 290 280 280 300 317 318 317 315 313 313 311 312 314 312 308 304 304 308 306 308 303 298 288 283 280 282 283
289 235 253 272 253 298 284 95 154 242 303 283 250 271 289 313 300 279 194 250 311 316 316 314 313 313 312 313 314 311 305 306 306 307 307 308 308 301 301 293 293 288 276 284
162 236 238 211 256 270 16 99 138 181 290 94 202 308 311 273 290 323 78 310 316 319 317 315 315 313 311 314 315 312 311 309 308 315 311 306 308 301 304 298 288 280 281 277
180 209 231 232 258 273 271 172 163 263 331 354 322 321 277 259 295 321 309 310 317 314 313 315 311 308 312 314 315 312 312 313 311 309 313 312 309 304 303 304 293 286 287 279
192 191 209 201 219 271 146 142 218 319 285 290 285 279 258 258 283 288 298 305 310 309 313 312 309 312 315 315 317 312 315 313 314 316 312 313 310 308 305 300 290 286 284 284
242 220 237 207 225 4 202 266 290 285 286 290 286 289 252 259 265 287 298 307 309 309 311 313 313 313 316 316 325 315 316 318 316 315 317 313 311 309 304 296 282 284 287 276
246 222 255 295 233 266 277 273 271 279 276 284 281 274 246 249 256 270 291 302 306 314 316 317 315 316 318 323 324 319 319 313 321 317 317 314 313 311 308 301 287 283 279 278
349 170 258 271 281 267 272 286 298 302 291 271 263 246 230 230 250 275 292 304 314 316 315 319 315 317 321 322 321 324 325 323 322 317 317 316 315 312 308 302 293 280 278 274
224 252 252 269 303 316 305 313 315 295 287 274 247 220 218 227 253 279 293 313 316 314 316 316 318 320 320 320 325 326 325 327 321 319 320 318 317 314 311 309 306 293 283 285
Height
820 818 818 820 823 824 826 829 831 830 835 836 837 837 844 848 850 849 849 848 849 850 854 854 854 854 852 851 849 847 846 844 842 840 837 834 831 828 826 822 819 816 813 811
821 820 824 824 827 828 829 830 827 834 837 835 830 831 837 844 845 844 845 846 848 850 850 851 852 853 852 851 850 848 846 844 842 841 838 836 832 828 825 821 818 815 811 809
821 825 826 827 830 830 829 830 830 833 836 839 837 824 835 840 841 843 844 845 847 848 848 848 849 850 850 849 849 848 846 844 842 840 837 834 830 826 822 819 816 812 809 806
824 827 829 829 830 830 832 832 835 839 838 830 836 819 827 829 839 840 840 843 843 846 847 848 848 847 847 847 847 846 844 842 839 837 834 831 827 822 819 816 812 809 805 802
827 830 831 832 830 832 833 838 839 839 836 839 836 837 803 826 834 833 834 837 841 843 845 846 847 846 844 844 844 843 841 839 836 834 831 827 823 819 813 810 806 803 800 797
830 831 831 831 835 835 839 839 842 841 838 836 822 830 789 821 816 820 826 834 838 841 843 844 843 842 841 841 841 840 838 835 832 829 826 822 818 812 807 803 800 796 793 790
834 834 835 836 836 836 835 835 825 828 832 814 832 834 796 808 815 812 822 829 834 838 840 840 839 839 839 839 838 836 833 830 827 823 820 816 811 807 801 797 792 789 785 783
828 836 839 840 837 835 838 837 826 831 817 812 843 826 797 816 817 815 821 826 832 835 836 836 836 837 836 836 834 832 829 825 822 818 814 809 805 800 795 790 787 782 779 776
831 834 843 844 841 841 839 837 842 836 846 838 806 807 805 819 821 821 824 827 830 832 833 833 835 835 833 832 830 828 824 820 816 812 807 802 797 793 788 784 780 776 772 769
842 834 845 845 844 845 841 842 840 835 832 825 803 813 794 815 816 820 821 822 825 830 830 831 832 831 830 828 826 823 819 814 810 806 801 796 791 786 781 777 772 768 764 761
847 844 845 846 842 833 846 841 844 842 835 821 815 795 790 797 801 807 812 814 819 825 828 829 828 827 825 823 820 817 813 809 804 800 795 790 784 779 774 769 764 759 756 752
853 844 833 831 847 850 845 838 833 833 828 836 842 816 800 804 805 807 805 809 816 824 826 825 824 823 820 818 815 812 808 803 799 795 789 783 778 772 767 761 756 753 748 744
852 842 829 833 848 850 845 841 842 847 848 835 827 800 802 807 807 808 810 810 814 821 821 820 820 819 816 813 810 807 803 798 794 789 783 777 772 766 760 754 749 744 740 734
857 848 837 824 831 837 839 843 844 837 839 814 813 791 787 795 801 806 808 812 814 815 818 818 817 815 812 809 806 801 798 794 788 783 777 771 765 760 754 748 743 738 732 727
855 844 848 837 842 847 841 835 838 838 819 821 793 794 788 790 795 798 802 810 813 813 814 814 814 812 808 804 801 797 793 788 783 777 770 763 757 751 746 741 735 730 725 719
859 845 855 841 852 852 846 832 829 827 822 816 805 808 796 794 801 802 805 808 810 810 811 812 811 807 804 801 797 793 788 783 778 770 763 756 750 745 738 733 727 722 716 712
854 852 852 835 849 844 828 809 808 807 811 809 807 788 797 800 804 803 804 807 808 809 811 809 807 805 802 798 794 789 784 778 772 765 757 750 743 735 729 723 717 712 707 702
855 853 855 846 841 829 805 806 811 808 803 806 805 800 798 799 804 805 806 806 808 809 808 806 805 802 800 795 790 785 780 773 766 758 750 742 734 726 718 711 705 699 697 693
860 853 851 850 838 812 797 808 813 814 799 794 799 798 796 800 806 797 803 808 809 808 807 805 802 799 795 790 785 781 775 768 760 752 743 735 727 717 708 700 693 688 684 683
865 860 852 857 853 828 796 816 818 819 804 791 797 796 796 804 795 790 804 806 806 806 804 802 799 795 791 786 782 775 769 763 754 744 736 727 718 708 699 691 684 680 678 674
854 855 851 842 848 822 803 814 819 813 797 795 798 796 799 800 795 799 804 804 805 805 802 799 796 792 787 783 777 770 763 756 748 738 729 719 709 700 691 683 677 673 669 666
837 841 841 839 847 827 805 816 812 790 794 797 796 796 798 798 798 801 803 803 803 801 799 797 792 787 784 778 773 765 759 750 741 732 721 712 701 692 683 676 670 667 662 659
833 816 813 818 810 800 804 793 791 796 794 792 794 793 796 796 797 800 801 801 799 798 796 792 788 783 779 773 768 761 753 745 735 724 714 704 694 684 676 668 664 660 656 652
824 824 824 816 795 795 789 790 791 792 791 790 789 791 793 794 796 798 798 797 796 794 791 787 783 779 774 770 765 758 749 739 730 718 707 697 687 677 669 662 657 653 650 647
821 827 805 788 790 788 787 786 788 786 786 788 788 789 791 793 794 796 796 795 793 791 788 784 780 774 770 766 760 752 744 734 725 713 702 691 682 672 663 656 650 646 643 640
814 805 803 785 783 787 784 787 788 788 784 782 784 787 790 792 793 794 792 791 790 788 785 781 776 772 768 762 756 748 739 731 720 709 698 687 677 667 658 649 642 639 635 632